{"data":{"norad_id":47383,"epoch":"2026-05-25T00:43:37.913088Z","epoch_age_seconds":76000,"freshness":"FRESH","line1":"1 47383U 21005AL  26145.03029992  .00036665  00000+0  11505-2 0  9994","line2":"2 47383  53.1613  19.0978 0001150 149.3134 210.7936 15.32713282295415","mean_motion":15.32713282,"eccentricity":0.000115,"inclination_deg":53.1613,"raan_deg":19.0978,"arg_perigee_deg":149.3134,"mean_anomaly_deg":210.7936,"bstar":0.0011505,"rev_number":29541,"period_min":93.951035520549,"perigee_km":466.93384482414,"apogee_km":468.5083921914,"semimajor_km":6845.8581185078,"source":"CELESTRAK","updated_at":"2026-05-25T13:38:16.551116Z"}}